sat.trackr.live / text

‹ back to catalog

STARLINK-30392

NORAD 57855 · 2023-141R

PAYLOAD ACTIVE UNKNOWN

§ Identity

Operator
Country
US
Launch date
2023-09-12
Launch site
AFWTR
Launch vehicle
Mass (kg)
RCS (m²)

Purposes: comms

External: N2YO · Heavens-Above · Gunter

§ Orbital elements

Epoch: 2026-09-20T06:30:57.401280Z

Period
93.85 min
Inclination
53.1598°
Eccentricity
0.0001112
Mean motion
15.34386804 rev/d
Perigee alt
462.0 km
Apogee alt
463.5 km
Semi-major
6,840.9 km
B*
1.6261e-5
RAAN
98.5868°
Arg perigee
93.2809°
Mean anomaly
266.8320°
Rev number
17,014

§ Raw data

STARLINK-303921 57855U 23141R   26263.27149770  .00000173  00000+0  16261-4 0  99972 57855  53.1598  98.5868 0001112  93.2809 266.8320 15.34386804170145

JSON: /api/v1/satellites/57855 · /tle

For live sub-satellite position, see the globe view (requires WebGL).

§ Visibility from observer

Set your observer location to see the next 7 days of passes ≥ 10°. The values pass through the URL so the page stays shareable.

No JS? Fill the form by hand. The geolocation button needs JavaScript.